{"data":{"norad_id":56052,"epoch":"2026-05-25T05:12:35.250624Z","epoch_age_seconds":46436,"freshness":"FRESH","line1":"1 56052U 23043G   26145.21707466  .00000104  00000+0  21946-3 0  9990","line2":"2 56052  87.9251 248.5485 0002087  94.7594 265.3778 13.21824813155195","mean_motion":13.21824813,"eccentricity":0.0002087,"inclination_deg":87.9251,"raan_deg":248.5485,"arg_perigee_deg":94.7594,"mean_anomaly_deg":265.3778,"bstar":0.00021946,"rev_number":15519,"period_min":108.94030629761,"perigee_km":1176.180976568,"apogee_km":1179.3348070958,"semimajor_km":7555.8948918319,"source":"CELESTRAK","updated_at":"2026-05-25T13:38:22.700860Z"}}